Погода в Елгае

Россия / Томская область     56°15′00″N   83°20′21″E
темп.,
°C
ветер,
м/с
пор.,
м/с
влажн.,
%
обл.,
%
осадки,
мм/ч
давл.,
гПа
погр.,
м
30 ноября, вт
вт3001:00−9ююз41382100 0.0 1028323
04:00−9ююз4138198 0.0 1027307
07:00−9ююз41383100 0.0 1025337
10:00−8юз41481100 0.0 1025354
13:00−6юз41379100 0.0 1024408
16:00−6юз4128081 0.0 1024367
19:00−9юз411865 0.0 1024246
22:00−11юз3108875 0.0 1025195
1 декабря, ср
ср101:00−12юз399086 0.0 1026167
04:00−14юз279446 0.0 1027100
07:00−16ююз249658 0.0 102757
10:00−17ююз259671 0.0 102870
13:00−10ююз368591 0.0 1028161
16:00−9ю388894 0.0 1027206
19:00−10ююз3988100 0.0 1027205
22:00−11ююз41187100 0.0 1026221
2 декабря, чт
чт201:00−10ююз41388100 0.0 1025280
04:00−10ююз31288100 0.0 1024252
07:00−10ююз41188100 0.0 1023201
10:00−10ююз41188100 0.0 1022219
13:00−7ююз41283100 0.0 1021293
16:00−6ю41183100 0.0 1020269
19:00−8ю41285100 0.0 1019262
22:00−9ю4138732 0.0 1017264
3 декабря, пт
пт301:00−6ю516835 0.0 1015322
04:00−5ю5168058 0.0 1012350
07:00−2ю61973100 0.0 1009527
10:00−1ююз6187088 0.0 1007581
13:00+1ююз71778100 0.0 1005734
16:000ююз61597100 0.6 1004817
19:000юз61497100 3.1 1005811
22:000зюз61481100 0.1 1007937
4 декабря, сб
сб401:00−5зюз615805 0.1 1011673
04:00−7юз515865 0.0 1014559
07:00−8юз51491100 0.0 1016578
10:00−8юз51391100 0.1 1019616
13:00−7юз61489100 0.1 1021718
16:00−7юз51391100 0.1 1022737
19:00−7юз5139199 0.2 1024635
22:00−6юз51292100 0.1 1025616